Hourly Data Report for May 15, 2022

KUGAARUK CLIMATE
NUNAVUT
Current Station Operator: ECCC - MSC

68°32'15.060" N
89°47'47.020" W
15.80 m
2303094
71407
NBB

Download Data

Hourly Data (May 2022)
Hourly Data Report for May 15, 2022
TIME
LST
Temp Definition
°C
Dew Point Definition
°C
Rel Hum Definition
%
Precip. Amount Definition
mm

Wind Dir Definition
10's deg

Wind Spd Definition
km/h
Visibility Definition
km
Stn Press Definition
kPa
Hmdx Definition


Wind Chill Definition


Weather Definition


00:00 -3.9 -9.5 65 0.0 22 29   102.26   -11 LegendNANA
01:00 -5.2 -10.0 69 0.0 23 19   102.27   -12 LegendNANA
02:00 -5.2 -10.4 67 0.0 22 21   102.23   -12 LegendNANA
03:00 -4.8 -10.7 63 0.0 22 28   102.21   -12 LegendNANA
04:00 -5.0 -10.5 65 0.0 23 30   102.19   -13 LegendNANA
05:00 -5.0 -10.6 65 0.0 22 16   102.18   -11 LegendNANA
06:00 -4.5 -10.1 65 0.0 23 17   102.17   -10 LegendNANA
07:00 -4.2 -9.6 66 0.0 23 13   102.15   -9 LegendNANA
08:00 -3.7 -9.1 66 0.0 24 12   102.12   -8 LegendNANA
09:00 -3.2 -8.5 67 0.0 24 10   102.11   -7 LegendNANA
10:00 -2.7 -8.3 65 0.0 24 8   102.09   -6 LegendNANA
11:00 -2.2 -8.2 63 0.0 29 8   102.08   -5 LegendNANA
12:00 -2.3 -8.4 63 0.0 27 7   102.08   -5 LegendNANA
13:00 -2.0 -7.9 64 0.0 21 6   102.05   -4 LegendNANA
14:00 -1.9 -7.3 67 0.0 23 9   102.06   -5 LegendNANA
15:00 -2.0 -6.4 72 0.0 23 12   102.05   -6 LegendNANA
16:00 -1.4 -6.9 66 0.0 3 7   102.06   -4 LegendNANA
17:00 -1.7 -6.6 69 0.0 5 6   102.04   -4 LegendNANA
18:00 -2.2 -6.5 73 0.0 3 12   102.03   -6 LegendNANA
19:00 -2.3 -5.6 78 0.0 2 10   102.04   -6 LegendNANA
20:00 -2.3 -4.9 82 0.0 2 10   102.04   -6 LegendNANA
21:00 -2.6 -4.2 89 0.0 2 11   102.03   -7 LegendNANA
22:00 -2.6 -3.1 96 0.0 1 14   102.02   -7 LegendNANA
23:00 -2.6 -3.1 96 0.0 2 8   102.02   -6 LegendNANA

Notes on Data Quality.

Legend

  • E = Estimated
  • M = Missing
  • NA = Not Available*
  • [empty] = Indicates an unobserved value
Date modified: